Location: Anare
(10.6236°N, 66.6506°W)
Time: 12:04:23
(UTC+00:00)

Daily predictions for brighter satellites

Satellite Brightness Start Highest point End
(mag) Time Altitude Azimuth Time Altitude Azimuth Time Altitude Azimuth
Cosmos 1295 Rocket 4.4 22:49:04 10° N 22:55:09 77° E 23:01:12 10° S
GPS 2-17 Rocket1 3.0 22:51:41 10° WNW 22:56:11 76° NNE 23:00:33 10° ESE
[s.n.59506] 4.1 22:58:37 10° N 23:00:37 20° NE 23:02:38 10° E
[s.n.59505] 4.1 22:58:59 10° N 23:01:00 20° NE 23:03:01 10° E
[s.n.59504] 4.1 22:59:17 10° N 23:01:18 20° NE 23:03:19 10° E
[s.n.59503] 4.1 22:59:39 10° N 23:01:42 20° NE 23:03:44 10° E
[s.n.59502] 4.0 23:00:00 10° N 23:02:03 21° NE 23:04:05 10° E
[s.n.59501] 4.0 23:00:21 10° N 23:02:25 21° NE 23:04:28 10° E
[s.n.59500] 4.0 23:00:39 10° NNW 23:02:43 21° NE 23:04:48 10° E
[s.n.59490] 4.0 23:00:43 10° NNW 23:02:48 21° NE 23:04:51 10° E
[s.n.59499] 4.0 23:00:56 10° NNW 23:03:02 21° NE 23:05:06 10° E
[s.n.59498] 4.0 23:01:16 10° NNW 23:03:22 22° NE 23:05:27 10° E
[s.n.59496] 4.0 23:01:40 10° NNW 23:03:48 22° NE 23:05:51 10° E
[s.n.59497] 3.9 23:02:03 10° NNW 23:04:09 22° NE 23:06:12 10° E
[s.n.59495] 3.9 23:02:18 10° NNW 23:04:25 22° NE 23:06:27 11° E
[s.n.59494] 3.9 23:02:39 10° NNW 23:04:49 23° NE 23:06:50 11° E
[s.n.59493] 3.9 23:02:54 10° NNW 23:05:04 23° NE 23:07:04 11° E
[s.n.59492] 3.9 23:03:16 10° NNW 23:05:26 23° NE 23:07:26 11° E
[s.n.59491] 3.8 23:03:57 10° NNW 23:06:08 24° NE 23:08:06 11° E
[s.n.59487] 3.8 23:04:14 10° NNW 23:06:26 24° NE 23:08:23 12° E
[s.n.59489] 3.8 23:04:32 10° NNW 23:06:44 24° NE 23:08:40 12° E
Cosmos 1346 Rocket 2.7 23:02:59 10° S 23:06:48 85° W 23:10:37 10° N
[s.n.59488] 3.8 23:04:52 10° NNW 23:07:06 24° NE 23:09:00 12° E
[s.n.59486] 3.8 23:05:17 10° NNW 23:07:31 25° NE 23:09:25 12° E
[s.n.59485] 3.8 23:05:33 10° NNW 23:07:48 25° NE 23:09:42 12° E
[s.n.59484] 3.7 23:05:47 10° NNW 23:08:02 25° NE 23:09:55 12° E
Cosmos 968 Rocket 4.5 23:05:46 10° NNE 23:09:59 25° ENE 23:14:12 10° SE
NOAA 6 4.0 23:06:12 10° SSE 23:11:19 82° ENE 23:16:25 10° N
Intelsat 5-3 Rocket 4.1 23:08:37 10° WSW 23:13:56 89° SSE 23:28:04 10° ENE
NOSS 3-1 (A) 3.7 23:10:35 10° SW 23:15:04 51° WNW 23:19:41 10° NNE
Cosmos 2221 Rocket 3.6 23:12:45 10° N 23:17:16 71° E 23:21:45 10° S
Cosmos 2154 Rocket 4.3 23:11:24 10° N 23:17:32 71° W 23:23:43 10° S
USA 229 DEB 3.7 23:17:50 10° S 23:23:17 40° ESE 23:28:48 10° NE
USA 229 3.7 23:17:57 10° S 23:23:22 39° ESE 23:28:54 10° NE
CBERS 1 LM4 rocket 4.3 23:19:37 10° SSE 23:24:24 82° ENE 23:29:06 10° N
Palapa 6 Rocket 3.7 23:23:51 10° NW 23:27:12 31° NNE 23:29:29 17° ENE
IKONOS-2 4.4 23:23:11 10° NNE 23:27:19 64° E 23:31:27 10° S
CZ-4B R/B 3.4 23:23:47 10° SSE 23:28:49 85° E 23:33:43 10° N
IGS 5A 4.1 23:25:19 10° S 23:29:18 55° W 23:33:16 10° NNW
Cosmos 1741 Rocket 3.9 23:25:37 10° N 23:30:52 78° ENE 23:36:09 10° SSE
Delta 7925 Rocket 3.5 23:29:12 10° WNW 23:34:09 78° SSW 23:38:08 21° ESE
GPS 2-14 Rocket1 2.4 23:31:34 10° WNW 23:34:53 60° NNE 23:36:17 31° E
GOES 2 Rocket 3.0 23:31:51 10° WSW 23:36:10 84° SSE 23:40:07 17° ENE
H-2A R/B 3.5 23:02:20 10° WSW 23:37:18 79° NNW 23:41:30 13° ENE
Cosmos 1455 4.4 23:38:53 10° SW 23:41:54 26° W 23:44:55 10° NNW
Iridium 921 4.3 23:38:28 10° N 23:41:57 86° E 23:45:25 10° S
Cosmos 1025 Rocket 3.1 23:40:53 10° N 23:45:08 52° E 23:47:45 22° SSE
Meteor PRIRODA 3.6 23:41:55 10° S 23:45:18 72° W 23:48:42 10° NNW
Cosmos 1850 Rocket 4.5 23:42:29 10° NNW 23:47:38 61° WSW 23:52:44 10° S
CZ-3C R/B 3.8 23:41:24 10° W 23:48:39 19° SW 23:51:37 10° S
Cosmos 2181 Rocket 4.4 23:43:38 10° SSW 23:49:41 64° W 23:55:48 10° N
Resurs 1-3 3.7 23:53:06 41° ESE 23:54:01 48° ENE 23:58:12 10° N
Cosmos 2098 Rocket 3.7 23:48:06 10° S 23:54:05 81° W 23:59:04 10° N
Cosmos 1656 3.6 23:48:47 10° S 23:54:19 59° ESE 23:59:47 10° NNE
YAOGAN 1 3.5 23:50:45 10° S 23:54:53 48° W 23:59:00 10° NNW
